Flag for United Kingdom Weather past 2 weeks in Dundee, Scotland, United Kingdom

Now
43 °F

Light rain. Partly sunny.


Feels Like: 35 °F
Forecast: 38 / 44 °F
Wind: 16 mph from Southwest

Location: Dundee / Riverside

Current Time: Mar 30, 2015 at 6:37:44 PM

Latest Report: Mar 30, 2015 at 5:50 PM


Visibility: N/A

Pressure: 29.30 "Hg

Humidity: 87%

Dew point: 39 °F

Location of DundeeLocation

Historic Weather in Dundee — Graph

°F

Dundee temperature yesterday

Maximum temperature yesterday: 48 °F (at 10:50 AM)
Minimum temperature yesterday: 39 °F (at 9:20 AM)
Average temperature yesterday: 45 °F

Past Weeks' High & Low Weather Summary

 TemperatureHumidityPressure
High55 °F (Mar 20, 11:20 AM)100% (Mar 16, 10:20 AM)30.57 "Hg (Mar 16, 10:20 AM)
Low32 °F (Mar 24, 6:50 AM)41% (Mar 23, 1:50 PM)29.09 "Hg (Mar 29, 3:20 PM)
Average45 °F80%29.99 "Hg
* Reported Mar 15 4:20 PM — Mar 30 5:20 PM, Dundee, Weather by CustomWeather, © 2015

Note: Actual official high and low records may vary slightly from our data, if they occured in-between our weather recording intervals... More about our weather records

Advertising

Dundee weather history for previous 24 hours

 ConditionsComfort  
Time TempWeatherWind HumidityBarometerVisibility
5:20 PM
Mon, Mar 30
43 °FLight rain. Partly sunny.21 mph87%29.33 "HgN/A
4:50 PM45 °FLight rain. Mostly cloudy.25 mph81%29.36 "HgN/A
4:20 PM45 °FLight rain. Mostly cloudy.13 mph87%29.39 "HgN/A
3:50 PM43 °FLight rain. Mostly cloudy.17 mph93%29.42 "HgN/A
3:20 PM45 °FSprinkles. Partly sunny.13 mph81%29.42 "HgN/A
2:50 PM45 °FSprinkles. Partly sunny.18 mph81%29.45 "HgN/A
2:20 PM46 °FScattered showers. Partly sunny.18 mph76%29.47 "HgN/A
1:50 PM46 °FScattered showers. Partly sunny.20 mph76%29.47 "HgN/A
1:20 PM46 °FScattered clouds.21 mph71%29.47 "HgN/A
12:50 PM45 °FScattered clouds.22 mph76%29.50 "HgN/A
12:20 PM45 °FScattered clouds.23 mph76%29.50 "HgN/A
11:50 AM45 °FScattered clouds.21 mph71%29.50 "HgN/A
11:20 AM43 °FPassing clouds.23 mph81%29.50 "HgN/A
10:50 AM41 °FPassing clouds.22 mph81%29.50 "HgN/A
10:20 AM43 °FPassing clouds.23 mph76%29.50 "HgN/A
9:50 AM36 °FPassing clouds.21 mph75%29.50 "HgN/A
9:20 AM41 °FPassing clouds.17 mph81%29.50 "HgN/A
8:50 AM39 °FPassing clouds.18 mph87%29.50 "HgN/A
8:20 AM39 °FPassing clouds.13 mph75%29.50 "HgN/A
7:50 AM36 °FPassing clouds.14 mph81%29.47 "HgN/A
7:20 AM36 °FPassing clouds.14 mph81%29.47 "HgN/A
6:50 AM37 °FClear.18 mph81%29.45 "Hg10 mi
6:20 AM36 °FClear.14 mph81%29.45 "Hg10 mi
8:20 PM
Sun, Mar 29
43 °FScattered clouds.21 mph76%29.15 "HgN/A
7:50 PM43 °FScattered clouds.20 mph81%29.15 "HgN/A
7:20 PM43 °FScattered clouds.23 mph81%29.12 "HgN/A
6:50 PM43 °FScattered showers. Scattered clouds.25 mph87%29.12 "HgN/A
6:20 PM43 °FSprinkles. Scattered clouds.21 mph87%29.12 "HgN/A
Weather by CustomWeather, © 2015

See weather overviewHow to use our weather pages